Alturas, CA

2:31 AM PST on December 06, 2019 (GMT -0800)
Alturas Municipal

Weather History for KAAT - October, 2019

Change the Weather History Date:

Friday, October 25, 2019

  Actual Average Record
Temperature  
Mean Temperature 50 °F 44 °F  
Max Temperature 75 °F 61 °F 80 °F (1959)
Min Temperature 25 °F 27 °F 11 °F (1997)
Degree Days  
Heating Degree Days 15 21  
Month to date heating degree days 510 431  
Since 1 July heating degree days 816 808  
Cooling Degree Days 0 0  
Month to date cooling degree days 0 0  
Year to date cooling degree days 217 156  
Moisture  
Dew Point 25 °F    
Average Humidity 48    
Maximum Humidity 85    
Minimum Humidity 14    
Precipitation  
Precipitation 0.00 in 0.05 in 0.73 in (1931)
Month to date precipitation 0.31 0.72  
Year to date precipitation 12.54 10.38  
Sea Level Pressure  
Sea Level Pressure 30.25 in    
Wind  
Wind Speed 3 mph ()    
Max Wind Speed 15 mph    
Max Gust Speed 19 mph    
Visibility 10.0 miles    
Events      
T = Trace of Precipitation, MM = Missing Value Source: Averaged Metar Reports

Daily Weather History Graph

Daily Weather History Graph

Search for Another Location

Airport or City:

Astronomy

Oct. 25, 2019 Rise Set
Actual Time 7:25 AM PDT 6:06 PM PDT
Civil Twilight 6:57 AM PDT 6:34 PM PDT
Nautical Twilight 6:24 AM PDT 7:07 PM PDT
Astronomical Twilight 5:52 AM PDT 7:39 PM PDT
Moon 4:10 AM PDT (10/25) 5:14 PM PDT (10/25)
Length of Visible Light 11h 37m
Length of Day
10h 41m
Waning Crescent, 8% of the Moon is Illuminated
Oct 25
Waning Crescent
Oct 27
New
Nov 4
First Quarter
Nov 12
Full
Nov 19
Last Quarter

Hourly Weather History & Observations

Time (PDT) Temp. Windchill Dew Point Humidity Pressure Visibility Wind Dir Wind Speed Gust Speed Precip Events Conditions
12:55 AM 35.1 °F - 24.1 °F 64% 30.34 in 10.0 mi Calm Calm - N/A   Clear
1:55 AM 30.0 °F 26.5 °F 23.0 °F 75% 30.34 in 10.0 mi NNW 3.5 mph - N/A   Clear
2:55 AM 30.9 °F 27.5 °F 23.0 °F 72% 30.32 in 10.0 mi NE 3.5 mph - N/A   Clear
3:55 AM 30.0 °F - 23.0 °F 75% 30.31 in 10.0 mi Calm Calm - N/A   Clear
4:55 AM 30.0 °F - 24.1 °F 79% 30.30 in 10.0 mi Calm Calm - N/A   Clear
5:55 AM 28.0 °F - 21.9 °F 78% 30.31 in 10.0 mi Calm Calm - N/A   Clear
6:55 AM 27.0 °F 23.0 °F 21.9 °F 81% 30.36 in 10.0 mi Variable 3.5 mph - N/A   Clear
7:55 AM 27.0 °F 23.0 °F 23.0 °F 85% 30.36 in 10.0 mi NE 3.5 mph - N/A   Clear
8:55 AM 37.0 °F 33.3 °F 27.0 °F 67% 30.35 in 10.0 mi NW 4.6 mph - N/A   Clear
9:55 AM 53.1 °F - 23.0 °F 31% 30.31 in 10.0 mi SE 4.6 mph - N/A   Clear
10:55 AM 57.0 °F - 24.1 °F 28% 30.29 in 10.0 mi Variable 3.5 mph - N/A   Clear
11:55 AM 63.0 °F - 21.9 °F 21% 30.25 in 10.0 mi Calm Calm - N/A   Clear
12:55 PM 69.1 °F - 19.0 °F 15% 30.21 in 10.0 mi WNW 4.6 mph - N/A   Clear
1:55 PM 71.1 °F - 19.9 °F 14% 30.19 in 10.0 mi Variable 3.5 mph - N/A   Clear
2:55 PM 73.9 °F - 23.0 °F 15% 30.15 in 9.0 mi NNW 9.2 mph - N/A   Clear
3:55 PM 73.9 °F - 24.1 °F 16% 30.15 in 10.0 mi NW 13.8 mph - N/A   Clear
4:55 PM 71.1 °F - 26.1 °F 19% 30.15 in 10.0 mi WNW 11.5 mph - N/A   Clear
5:55 PM 64.9 °F - 28.9 °F 26% 30.16 in 10.0 mi NNW 5.8 mph - N/A   Clear
7:55 PM 57.9 °F - 30.0 °F 35% 30.19 in 10.0 mi Variable 3.5 mph - N/A   Clear
8:55 PM 55.0 °F - 32.0 °F 42% 30.17 in 10.0 mi SW 8.1 mph - N/A   Clear
10:55 PM 52.0 °F - 36.0 °F 54% 30.13 in 10.0 mi WNW 3.5 mph - N/A   Clear
11:55 PM 44.1 °F - 35.1 °F 71% 30.13 in 10.0 mi Calm Calm - N/A   Clear